Blytheville Muni Airport, AR

9:49 PM CDT on June 27, 2017 (GMT -0500)
Blytheville Municipal

Weather History for KHKA - February, 2013

Change the Weather History Date:

Monday, February 25, 2013

  Actual Average Record
Temperature  
Mean Temperature 48 °F -  
Max Temperature 59 °F 53 °F 80 °F (1930)
Min Temperature 37 °F 35 °F 11 °F (1967)
Degree Days  
Heating Degree Days 17    
Moisture  
Dew Point 38 °F    
Average Humidity 66    
Maximum Humidity 92    
Minimum Humidity 36    
Precipitation  
Precipitation 0.01 in - - ()
Sea Level Pressure  
Sea Level Pressure 29.66 in    
Wind  
Wind Speed 13 mph (East)    
Max Wind Speed 24 mph    
Max Gust Speed 34 mph    
Visibility 9 miles    
Events Rain , Thunderstorm    
Averages and records for this station are not official NWS values.
T = Trace of Precipitation, MM = Missing Value Source: NWS Daily Summary

Daily Weather History Graph

Daily Weather History Graph

Search for Another Location

Airport or City:

Trip Planner

Search our weather history database for the weather conditions in past years. The results will help you decide how hot, cold, wet, or windy it might be!

Date:

Astronomy

Feb. 25, 2013 Rise Set
Actual Time 6:34 AM CST 5:50 PM CST
Civil Twilight 6:08 AM CST 6:16 PM CST
Nautical Twilight 5:38 AM CST 6:46 PM CST
Astronomical Twilight 5:09 AM CST 7:16 PM CST
Moon 6:02 PM CST (2/25) 6:05 AM CST (2/25)
Length of Visible Light 12h 08m
Length of Day
11h 16m
Full, 100% of the Moon is Illuminated
Feb 25
Full
Feb 25
Full
Mar 4
Last Quarter
Mar 11
New
Mar 19
First Quarter

Hourly Weather History & Observations

Time (CST) Temp. Windchill Dew Point Humidity Pressure Visibility Wind Dir Wind Speed Gust Speed Precip Events Conditions
12:53 AM 39.9 °F 33.9 °F 30.0 °F 68% 29.95 in 10.0 mi East 9.2 mph - N/A   Clear
1:53 AM 39.0 °F 32.8 °F 30.0 °F 70% 29.95 in 10.0 mi ENE 9.2 mph - N/A   Clear
2:53 AM 39.0 °F 33.4 °F 28.9 °F 67% 29.95 in 10.0 mi ENE 8.1 mph - N/A   Clear
3:53 AM 39.9 °F 32.9 °F 28.9 °F 65% 29.92 in 10.0 mi ENE 11.5 mph - N/A   Clear
4:53 AM 39.9 °F 31.8 °F 28.0 °F 63% 29.91 in 10.0 mi East 15.0 mph - N/A   Clear
5:53 AM 39.0 °F 32.3 °F 28.0 °F 65% 29.91 in 10.0 mi East 10.4 mph - N/A   Clear
6:53 AM 37.9 °F 31.5 °F 28.0 °F 68% 29.91 in 10.0 mi ENE 9.2 mph - N/A   Clear
7:53 AM 42.1 °F 35.2 °F 28.0 °F 58% 29.90 in 10.0 mi East 12.7 mph - N/A   Clear
8:53 AM 45.0 °F 39.3 °F 30.0 °F 56% 29.89 in 10.0 mi East 11.5 mph - N/A   Clear
9:53 AM 50.0 °F - 28.9 °F 44% 29.88 in 10.0 mi East 19.6 mph 25.3 mph 0.01 in   Mostly Cloudy
10:53 AM 53.1 °F - 30.0 °F 41% 29.86 in 10.0 mi East 17.3 mph - N/A   Clear
11:53 AM 55.9 °F - 30.9 °F 39% 29.82 in 10.0 mi East 13.8 mph - N/A   Partly Cloudy
12:53 PM 55.0 °F - 32.0 °F 42% 29.75 in 10.0 mi East 15.0 mph - N/A   Overcast
1:53 PM 57.0 °F - 33.1 °F 40% 29.70 in 10.0 mi East 13.8 mph - N/A   Overcast
2:53 PM 59.0 °F - 32.0 °F 36% 29.65 in 10.0 mi East 17.3 mph 24.2 mph N/A   Overcast
3:53 PM 57.9 °F - 34.0 °F 41% 29.59 in 10.0 mi East 18.4 mph - N/A   Overcast
4:53 PM 57.9 °F - 42.1 °F 56% 29.57 in 10.0 mi ESE 18.4 mph - N/A   Overcast
5:53 PM 57.0 °F - 43.0 °F 59% 29.54 in 10.0 mi East 17.3 mph - N/A Thunderstorm Overcast
6:12 PM 57.2 °F - 42.8 °F 59% 29.55 in 10.0 mi ESE 18.4 mph 28.8 mph N/A   Overcast
6:39 PM 57.2 °F - 44.6 °F 63% 29.52 in 10.0 mi ESE 23.0 mph 34.5 mph N/A Thunderstorm Overcast
6:53 PM 55.9 °F - 45.0 °F 67% 29.52 in 10.0 mi ESE 20.7 mph 28.8 mph 0.00 in Rain , Thunderstorm Light Thunderstorms and Rain
7:23 PM 53.6 °F - 46.4 °F 77% 29.49 in 9.0 mi East 13.8 mph 23.0 mph 0.00 in Rain , Thunderstorm Light Rain
7:46 PM 53.6 °F - 46.4 °F 77% 29.49 in 7.0 mi ESE 16.1 mph - N/A Rain , Thunderstorm Light Thunderstorms and Rain
7:53 PM 53.1 °F - 46.9 °F 80% 29.49 in 10.0 mi ESE 15.0 mph - N/A Rain , Thunderstorm Light Thunderstorms and Rain
8:32 PM 51.8 °F - 48.2 °F 88% 29.49 in 5.0 mi East 11.5 mph - N/A Rain Heavy Rain
8:53 PM 51.1 °F - 48.0 °F 89% 29.47 in 5.0 mi East 11.5 mph - N/A Rain Heavy Rain
9:09 PM 51.8 °F - 48.2 °F 88% 29.46 in 5.0 mi East 12.7 mph - N/A Rain Heavy Rain
9:38 PM 51.8 °F - 48.2 °F 88% 29.43 in 7.0 mi ENE 12.7 mph - N/A Rain Rain
9:53 PM 52.0 °F - 48.9 °F 89% 29.42 in 7.0 mi East 17.3 mph - N/A Rain Rain
10:53 PM 51.1 °F - 48.9 °F 92% 29.34 in 9.0 mi East 24.2 mph 27.6 mph N/A Rain Light Rain
11:13 PM 51.8 °F - 48.2 °F 88% 29.39 in 3.0 mi SE 13.8 mph 26.5 mph N/A Rain Heavy Rain
11:53 PM 51.1 °F - 48.9 °F 92% 29.36 in 4.0 mi SE 15.0 mph 24.2 mph N/A Rain Light Rain